QPF
0.00 0.00 0.00 0.01 0.01 0.01 0.01 0.01 0.01 0.01 0.01 0.01 0.02 0.04 0.05 0.04 0.03 0.04 0.06 0.07 0.05 0.05 0.04 0.03 0.03 0.03 0.04 0.06 0.07 0.08 0.11 0.14 0.13 0.10 0.07 0.04 0.04 0.06 0.07 0.08 0.08 0.08 0.10 0.11
0.00 0.00 0.00 0.00 0.00 0.00 0.01 0.01 0.01 0.01 0.01 0.01 0.02 0.02 0.03 0.04 0.04 0.03 0.04 0.06 0.05 0.05 0.04 0.03 0.03 0.03 0.03 0.05 0.07 0.09 0.12 0.13 0.13 0.13 0.11 0.08 0.06 0.08 0.08 0.09 0.10 0.08 0.10 0.11
0.01 0.00 0.00 0.01 0.00 0.00 0.00 0.00 0.00 0.00 0.01 0.01 0.02 0.02 0.04 0.05 0.04 0.03 0.03 0.04 0.05 0.05 0.03 0.03 0.03 0.02 0.02 0.04 0.06 0.09 0.10 0.10 0.10 0.11 0.11 0.11 0.11 0.11 0.10 0.12 0.12 0.09 0.09 0.10
0.01 0.01 0.01 0.00 0.00 0.00 0.00 0.00 0.00 0.00 0.00 0.01 0.01 0.01 0.02 0.03 0.03 0.03 0.03 0.03 0.04 0.04 0.04 0.03 0.03 0.02 0.02 0.03 0.05 0.07 0.08 0.07 0.09 0.09 0.08 0.09 0.12 0.13 0.14 0.16 0.16 0.13 0.09 0.08
0.01 0.01 0.00 0.00 0.00 0.00 0.00 0.00 0.00 0.00 0.00 0.00 0.01 0.01 0.01 0.01 0.02 0.03 0.03 0.03 0.04 0.04 0.04 0.03 0.03 0.02 0.02 0.02 0.04 0.04 0.05 0.06 0.07 0.07 0.06 0.07 0.09 0.10 0.12 0.15 0.19 0.18 0.15 0.10
0.03 0.02 0.01 0.00 0.00 0.00 0.00 0.01 0.00 0.00 0.00 0.01 0.01 0.02 0.02 0.02 0.02 0.02 0.02 0.02 0.03 0.03 0.03 0.02 0.02 0.03 0.02 0.02 0.02 0.03 0.03 0.04 0.04 0.05 0.05 0.06 0.08 0.09 0.10 0.13 0.16 0.16 0.15 0.13
0.02 0.02 0.01 0.00 0.00 0.00 0.01 0.01 0.00 0.00 0.00 0.01 0.02 0.03 0.03 0.03 0.03 0.01 0.01 0.01 0.02 0.03 0.03 0.02 0.02 0.02 0.02 0.02 0.02 0.02 0.02 0.03 0.04 0.04 0.05 0.06 0.07 0.09 0.11 0.11 0.12 0.13 0.12 0.12
0.01 0.02 0.01 0.00 0.00 0.01 0.01 0.00 0.00 0.00 0.00 0.01 0.01 0.01 0.02 0.02 0.03 0.01 0.01 0.01 0.01 0.01 0.02 0.02 0.02 0.02 0.02 0.02 0.02 0.02 0.02 0.03 0.03 0.04 0.05 0.05 0.06 0.08 0.10 0.09 0.10 0.11 0.11 0.10
0.01 0.01 0.01 0.00 0.00 0.00 0.00 0.00 0.00 0.00 0.00 0.00 0.01 0.01 0.01 0.02 0.03 0.02 0.01 0.01 0.01 0.01 0.01 0.02 0.02 0.03 0.03 0.03 0.02 0.02 0.03 0.03 0.03 0.04 0.05 0.05 0.06 0.07 0.08 0.08 0.08 0.10 0.09 0.09
0.01 0.01 0.00 0.00 0.00 0.00 0.00 0.00 0.00 0.00 0.00 0.00 0.00 0.01 0.01 0.01 0.03 0.04 0.03 0.02 0.01 0.01 0.01 0.02 0.02 0.03 0.03 0.03 0.03 0.03 0.03 0.03 0.04 0.04 0.04 0.05 0.06 0.07 0.07 0.08 0.09 0.08 0.08 0.08
0.01 0.00 0.00 0.00 0.00 0.00 0.00 0.00 0.00 0.00 0.00 0.00 0.00 0.01 0.01 0.01 0.02 0.04 0.04 0.04 0.03 0.02 0.02 0.02 0.02 0.03 0.03 0.04 0.04 0.04 0.04 0.04 0.03 0.03 0.04 0.04 0.06 0.07 0.07 0.08 0.09 0.10 0.09 0.07
0.01 0.01 0.01 0.00 0.00 0.00 0.00 0.00 0.00 0.00 0.00 0.00 0.00 0.00 0.01 0.01 0.01 0.02 0.03 0.04 0.04 0.04 0.03 0.03 0.03 0.04 0.04 0.05 0.05 0.05 0.05 0.04 0.04 0.03 0.03 0.03 0.04 0.05 0.06 0.06 0.07 0.08 0.09 0.08
0.01 0.01 0.00 0.00 0.00 0.00 0.00 0.00 0.00 0.00 0.00 0.00 0.00 0.00 0.01 0.01 0.01 0.01 0.02 0.03 0.04 0.04 0.04 0.04 0.03 0.04 0.04 0.04 0.04 0.04 0.04 0.04 0.03 0.03 0.03 0.02 0.03 0.04 0.04 0.04 0.04 0.06 0.07 0.08
0.00 0.00 0.00 0.00 0.00 0.00 0.00 0.00 0.00 0.00 0.00 0.00 0.00 0.00 0.01 0.01 0.01 0.01 0.01 0.02 0.03 0.03 0.04 0.04 0.04 0.04 0.04 0.04 0.03 0.03 0.03 0.03 0.03 0.03 0.03 0.03 0.03 0.03 0.04 0.04 0.05 0.06 0.07 0.08
0.00 0.00 0.00 0.00 0.00 0.00 0.00 0.00 0.00 0.00 0.00 0.00 0.00 0.00 0.00 0.01 0.01 0.01 0.01 0.01 0.01 0.02 0.03 0.03 0.03 0.04 0.05 0.04 0.03 0.03 0.02 0.02 0.02 0.02 0.03 0.03 0.03 0.03 0.04 0.04 0.05 0.05 0.06 0.07
0.00 0.00 0.00 0.00 0.00 0.00 0.00 0.00 0.00 0.00 0.00 0.00 0.00 0.00 0.01 0.01 0.01 0.01 0.01 0.01 0.01 0.02 0.03 0.03 0.03 0.05 0.06 0.05 0.04 0.03 0.03 0.03 0.02 0.02 0.02 0.03 0.03 0.03 0.03 0.04 0.04 0.04 0.05 0.07
0.00 0.00 0.00 0.00 0.00 0.00 0.00 0.00 0.00 0.00 0.00 0.00 0.00 0.01 0.01 0.01 0.01 0.01 0.01 0.02 0.02 0.02 0.03 0.03 0.03 0.04 0.05 0.05 0.04 0.03 0.03 0.03 0.02 0.02 0.02 0.02 0.03 0.03 0.03 0.03 0.03 0.04 0.04 0.05
0.01 0.01 0.01 0.01 0.01 0.01 0.01 0.01 0.01 0.01 0.00 0.00 0.01 0.01 0.01 0.01 0.01 0.01 0.02 0.02 0.02 0.01 0.02 0.02 0.02 0.03 0.03 0.03 0.03 0.03 0.03 0.02 0.02 0.02 0.02 0.02 0.02 0.02 0.03 0.02 0.03 0.03 0.03 0.03
0.01 0.01 0.01 0.01 0.01 0.01 0.01 0.01 0.01 0.01 0.01 0.01 0.01 0.01 0.01 0.01 0.01 0.01 0.01 0.01 0.01 0.01 0.01 0.01 0.01 0.02 0.02 0.03 0.03 0.02 0.02 0.02 0.01 0.01 0.01 0.01 0.01 0.02 0.02 0.02 0.02 0.02 0.02 0.03
0.01 0.01 0.01 0.01 0.01 0.01 0.00 0.00 0.00 0.00 0.01 0.01 0.01 0.01 0.01 0.01 0.01 0.01 0.01 0.01 0.01 0.02 0.02 0.01 0.01 0.01 0.02 0.02 0.02 0.02 0.02 0.01 0.02 0.02 0.01 0.01 0.01 0.01 0.01 0.01 0.01 0.01 0.02 0.02
0.01 0.01 0.01 0.01 0.01 0.01 0.00 0.01 0.01 0.01 0.01 0.01 0.01 0.01 0.01 0.01 0.01 0.01 0.01 0.01 0.01 0.02 0.02 0.02 0.01 0.01 0.01 0.02 0.02 0.02 0.02 0.02 0.02 0.02 0.01 0.01 0.01 0.01 0.01 0.01 0.01 0.01 0.01 0.02
0.01 0.01 0.01 0.01 0.01 0.00 0.00 0.00 0.00 0.01 0.01 0.01 0.01 0.01 0.01 0.01 0.01 0.01 0.01 0.02 0.02 0.02 0.02 0.01 0.01 0.01 0.02 0.02 0.02 0.02 0.01 0.01 0.01 0.01 0.01 0.01 0.01 0.01 0.01 0.01 0.01 0.01 0.01 0.01
0.01 0.01 0.01 0.01 0.01 0.01 0.00 0.00 0.00 0.00 0.01 0.01 0.01 0.01 0.01 0.01 0.01 0.01 0.01 0.01 0.01 0.02 0.01 0.01 0.01 0.01 0.02 0.02 0.01 0.01 0.01 0.01 0.01 0.01 0.01 0.01 0.01 0.01 0.01 0.01 0.01 0.01 0.01 0.01
0.01 0.01 0.01 0.01 0.01 0.01 0.00 0.00 0.00 0.00 0.00 0.01 0.01 0.01 0.01 0.01 0.01 0.01 0.01 0.01 0.02 0.02 0.01 0.01 0.01 0.01 0.01 0.01 0.01 0.01 0.01 0.01 0.01 0.01 0.01 0.01 0.01 0.01 0.01 0.01 0.01 0.01 0.01 0.01
0.01 0.01 0.01 0.01 0.01 0.01 0.01 0.00 0.00 0.00 0.00 0.00 0.00 0.01 0.01 0.01 0.01 0.01 0.01 0.01 0.02 0.01 0.01 0.01 0.01 0.01 0.01 0.01 0.01 0.01 0.01 0.01 0.01 0.01 0.01 0.01 0.01 0.01 0.01 0.01 0.01 0.01 0.01 0.01
0.01 0.01 0.01 0.01 0.01 0.01 0.01 0.01 0.01 0.00 0.00 0.00 0.00 0.00 0.01 0.01 0.01 0.01 0.01 0.01 0.01 0.01 0.01 0.01 0.01 0.01 0.01 0.01 0.01 0.01 0.01 0.01 0.01 0.01 0.01 0.01 0.01 0.01 0.01 0.01 0.01 0.01 0.01 0.01
0.01 0.01 0.01 0.01 0.01 0.01 0.01 0.01 0.01 0.01 0.01 0.01 0.01 0.01 0.01 0.01 0.01 0.01 0.01 0.01 0.01 0.01 0.01 0.01 0.01 0.01 0.01 0.01 0.01 0.01 0.01 0.01 0.01 0.01 0.01 0.01 0.01 0.01 0.01 0.01 0.01 0.01 0.01 0.01
MSLP
1024.67 1024.30 1023.85 1023.33 1022.76 1022.14 1021.49 1020.83 1020.17 1019.54 1018.96 1018.44 1018.00 1017.64 1017.35 1017.11 1016.91 1016.72 1016.52 1016.30 1016.05 1015.77 1015.48 1015.20 1014.94 1014.73 1014.58 1014.49 1014.46 1014.49 1014.57 1014.68 1014.83 1015.00 1015.20 1015.44 1015.73 1016.06 1016.45 1016.88 1017.35 1017.83 1018.33 1018.81
1025.18 1024.79 1024.32 1023.80 1023.22 1022.62 1022.00 1021.38 1020.77 1020.19 1019.66 1019.18 1018.75 1018.38 1018.04 1017.73 1017.44 1017.14 1016.82 1016.47 1016.11 1015.73 1015.36 1015.00 1014.69 1014.42 1014.21 1014.06 1013.96 1013.91 1013.90 1013.93 1013.98 1014.07 1014.21 1014.39 1014.65 1014.97 1015.35 1015.80 1016.30 1016.83 1017.37 1017.90
1025.67 1025.26 1024.79 1024.26 1023.69 1023.09 1022.49 1021.90 1021.32 1020.77 1020.27 1019.80 1019.36 1018.96 1018.58 1018.21 1017.83 1017.43 1017.02 1016.58 1016.14 1015.69 1015.25 1014.84 1014.47 1014.15 1013.88 1013.66 1013.47 1013.33 1013.21 1013.13 1013.08 1013.07 1013.12 1013.25 1013.46 1013.76 1014.14 1014.61 1015.13 1015.70 1016.29 1016.86
1026.14 1025.73 1025.25 1024.71 1024.14 1023.54 1022.94 1022.35 1021.78 1021.24 1020.73 1020.25 1019.79 1019.35 1018.92 1018.49 1018.05 1017.59 1017.12 1016.62 1016.13 1015.64 1015.16 1014.71 1014.29 1013.92 1013.57 1013.26 1012.98 1012.72 1012.49 1012.28 1012.12 1012.01 1011.98 1012.04 1012.21 1012.48 1012.86 1013.34 1013.89 1014.49 1015.11 1015.73
1026.57 1026.15 1025.66 1025.12 1024.54 1023.93 1023.33 1022.72 1022.14 1021.57 1021.03 1020.51 1020.01 1019.53 1019.05 1018.58 1018.09 1017.60 1017.09 1016.58 1016.07 1015.56 1015.06 1014.59 1014.13 1013.69 1013.27 1012.87 1012.47 1012.09 1011.73 1011.41 1011.13 1010.93 1010.82 1010.83 1010.96 1011.22 1011.60 1012.09 1012.66 1013.29 1013.94 1014.59
1026.92 1026.48 1025.99 1025.44 1024.85 1024.24 1023.61 1022.98 1022.36 1021.74 1021.15 1020.58 1020.02 1019.48 1018.96 1018.45 1017.94 1017.43 1016.93 1016.42 1015.92 1015.42 1014.93 1014.43 1013.94 1013.45 1012.95 1012.45 1011.95 1011.45 1010.98 1010.54 1010.17 1009.90 1009.73 1009.70 1009.82 1010.07 1010.46 1010.97 1011.56 1012.21 1012.89 1013.56
1027.13 1026.68 1026.18 1025.63 1025.04 1024.42 1023.78 1023.11 1022.44 1021.77 1021.11 1020.46 1019.83 1019.24 1018.66 1018.12 1017.60 1017.10 1016.61 1016.14 1015.67 1015.19 1014.71 1014.22 1013.70 1013.16 1012.59 1012.01 1011.41 1010.82 1010.25 1009.73 1009.29 1008.97 1008.77 1008.73 1008.85 1009.13 1009.54 1010.07 1010.69 1011.36 1012.04 1012.73
1027.13 1026.67 1026.18 1025.65 1025.07 1024.46 1023.80 1023.11 1022.39 1021.66 1020.92 1020.19 1019.49 1018.82 1018.20 1017.62 1017.09 1016.60 1016.14 1015.71 1015.28 1014.84 1014.39 1013.90 1013.37 1012.80 1012.18 1011.53 1010.86 1010.19 1009.56 1009.00 1008.53 1008.19 1008.01 1007.99 1008.14 1008.45 1008.90 1009.46 1010.09 1010.78 1011.47 1012.15
1026.87 1026.42 1025.95 1025.45 1024.91 1024.33 1023.68 1022.98 1022.22 1021.43 1020.62 1019.82 1019.04 1018.30 1017.62 1017.00 1016.46 1015.98 1015.54 1015.15 1014.76 1014.36 1013.94 1013.46 1012.93 1012.34 1011.69 1011.01 1010.30 1009.60 1008.95 1008.37 1007.91 1007.60 1007.45 1007.48 1007.68 1008.04 1008.53 1009.13 1009.79 1010.48 1011.17 1011.85
1026.31 1025.89 1025.47 1025.03 1024.56 1024.02 1023.41 1022.73 1021.96 1021.13 1020.27 1019.39 1018.53 1017.72 1016.98 1016.33 1015.76 1015.27 1014.85 1014.48 1014.13 1013.76 1013.36 1012.90 1012.38 1011.79 1011.14 1010.44 1009.72 1009.03 1008.39 1007.85 1007.44 1007.18 1007.10 1007.20 1007.47 1007.88 1008.42 1009.05 1009.73 1010.42 1011.11 1011.76
1025.47 1025.09 1024.75 1024.40 1024.02 1023.57 1023.03 1022.38 1021.64 1020.80 1019.90 1018.97 1018.05 1017.17 1016.37 1015.67 1015.06 1014.55 1014.13 1013.76 1013.41 1013.06 1012.68 1012.23 1011.72 1011.14 1010.50 1009.82 1009.14 1008.48 1007.90 1007.42 1007.08 1006.91 1006.91 1007.09 1007.42 1007.90 1008.48 1009.14 1009.82 1010.52 1011.19 1011.82
1024.40 1024.09 1023.83 1023.60 1023.33 1023.00 1022.56 1021.99 1021.29 1020.47 1019.57 1018.61 1017.64 1016.71 1015.85 1015.09 1014.44 1013.88 1013.42 1013.03 1012.67 1012.30 1011.91 1011.48 1010.97 1010.41 1009.80 1009.16 1008.53 1007.94 1007.44 1007.05 1006.81 1006.73 1006.82 1007.08 1007.48 1008.01 1008.62 1009.29 1009.99 1010.67 1011.32 1011.92
1023.19 1022.96 1022.81 1022.70 1022.58 1022.37 1022.05 1021.58 1020.96 1020.19 1019.31 1018.35 1017.35 1016.38 1015.47 1014.65 1013.93 1013.31 1012.79 1012.34 1011.93 1011.53 1011.12 1010.67 1010.17 1009.63 1009.05 1008.47 1007.91 1007.41 1007.00 1006.72 1006.58 1006.60 1006.78 1007.11 1007.58 1008.14 1008.78 1009.46 1010.14 1010.81 1011.44 1012.02
1021.94 1021.80 1021.77 1021.80 1021.81 1021.75 1021.56 1021.21 1020.68 1019.98 1019.14 1018.20 1017.20 1016.20 1015.24 1014.35 1013.56 1012.86 1012.26 1011.73 1011.25 1010.79 1010.33 1009.85 1009.34 1008.82 1008.28 1007.76 1007.28 1006.88 1006.58 1006.41 1006.38 1006.50 1006.77 1007.17 1007.68 1008.28 1008.93 1009.60 1010.27 1010.92 1011.52 1012.08
1020.77 1020.73 1020.82 1020.97 1021.12 1021.20 1021.14 1020.90 1020.47 1019.86 1019.07 1018.16 1017.17 1016.15 1015.14 1014.19 1013.32 1012.53 1011.84 1011.21 1010.64 1010.10 1009.58 1009.06 1008.54 1008.02 1007.53 1007.08 1006.69 1006.39 1006.21 1006.15 1006.23 1006.45 1006.80 1007.26 1007.81 1008.43 1009.08 1009.74 1010.40 1011.02 1011.60 1012.14
1019.77 1019.82 1020.02 1020.30 1020.57 1020.77 1020.82 1020.69 1020.36 1019.82 1019.09 1018.21 1017.23 1016.19 1015.15 1014.14 1013.18 1012.31 1011.50 1010.77 1010.10 1009.48 1008.89 1008.33 1007.79 1007.29 1006.85 1006.47 1006.17 1005.99 1005.92 1005.98 1006.17 1006.48 1006.91 1007.43 1008.01 1008.65 1009.29 1009.94 1010.58 1011.17 1011.73 1012.25
1019.00 1019.15 1019.46 1019.84 1020.21 1020.50 1020.64 1020.58 1020.32 1019.83 1019.14 1018.29 1017.32 1016.27 1015.19 1014.13 1013.10 1012.14 1011.24 1010.41 1009.65 1008.94 1008.29 1007.70 1007.15 1006.68 1006.29 1005.98 1005.79 1005.72 1005.77 1005.94 1006.24 1006.65 1007.15 1007.72 1008.34 1008.98 1009.63 1010.26 1010.87 1011.45 1011.98 1012.48
1018.50 1018.76 1019.16 1019.62 1020.06 1020.40 1020.58 1020.57 1020.33 1019.87 1019.20 1018.36 1017.38 1016.32 1015.21 1014.10 1013.02 1011.99 1011.01 1010.11 1009.27 1008.51 1007.82 1007.20 1006.67 1006.23 1005.90 1005.69 1005.60 1005.64 1005.81 1006.10 1006.50 1006.99 1007.56 1008.18 1008.83 1009.48 1010.12 1010.74 1011.32 1011.87 1012.37 1012.84
1018.30 1018.66 1019.13 1019.64 1020.10 1020.45 1020.63 1020.61 1020.36 1019.89 1019.21 1018.36 1017.37 1016.29 1015.16 1014.02 1012.90 1011.83 1010.81 1009.86 1008.99 1008.20 1007.50 1006.90 1006.40 1006.01 1005.76 1005.63 1005.65 1005.80 1006.08 1006.47 1006.96 1007.54 1008.16 1008.82 1009.49 1010.14 1010.77 1011.37 1011.92 1012.44 1012.91 1013.34
1018.38 1018.83 1019.34 1019.86 1020.31 1020.62 1020.75 1020.67 1020.37 1019.84 1019.13 1018.24 1017.23 1016.14 1015.00 1013.86 1012.74 1011.66 1010.63 1009.68 1008.82 1008.05 1007.37 1006.81 1006.37 1006.06 1005.88 1005.85 1005.97 1006.22 1006.59 1007.07 1007.64 1008.26 1008.93 1009.61 1010.28 1010.93 1011.54 1012.11 1012.63 1013.10 1013.52 1013.91
1018.69 1019.20 1019.73 1020.23 1020.61 1020.84 1020.88 1020.70 1020.30 1019.70 1018.93 1018.00 1016.97 1015.88 1014.75 1013.63 1012.53 1011.49 1010.51 1009.60 1008.79 1008.07 1007.46 1006.97 1006.61 1006.38 1006.29 1006.35 1006.55 1006.88 1007.33 1007.87 1008.48 1009.14 1009.82 1010.50 1011.16 1011.78 1012.35 1012.87 1013.34 1013.76 1014.14 1014.46
1019.19 1019.73 1020.24 1020.67 1020.96 1021.06 1020.97 1020.66 1020.15 1019.46 1018.61 1017.65 1016.61 1015.53 1014.44 1013.37 1012.34 1011.37 1010.47 1009.66 1008.93 1008.31 1007.79 1007.39 1007.12 1006.98 1006.98 1007.12 1007.39 1007.77 1008.26 1008.82 1009.45 1010.10 1010.77 1011.41 1012.03 1012.61 1013.13 1013.59 1014.00 1014.36 1014.66 1014.93
1019.81 1020.34 1020.80 1021.12 1021.27 1021.23 1020.98 1020.53 1019.90 1019.11 1018.21 1017.22 1016.18 1015.14 1014.12 1013.13 1012.21 1011.35 1010.57 1009.87 1009.27 1008.77 1008.36 1008.07 1007.90 1007.84 1007.92 1008.11 1008.42 1008.83 1009.33 1009.89 1010.49 1011.11 1011.72 1012.31 1012.86 1013.36 1013.81 1014.20 1014.53 1014.82 1015.05 1015.24
1020.50 1020.98 1021.33 1021.53 1021.52 1021.31 1020.91 1020.32 1019.58 1018.71 1017.77 1016.78 1015.78 1014.81 1013.88 1013.01 1012.21 1011.49 1010.85 1010.29 1009.83 1009.45 1009.17 1008.98 1008.90 1008.92 1009.05 1009.28 1009.61 1010.02 1010.49 1011.02 1011.56 1012.11 1012.65 1013.15 1013.61 1014.02 1014.38 1014.68 1014.92 1015.13 1015.28 1015.40
1021.19 1021.58 1021.81 1021.85 1021.68 1021.32 1020.77 1020.06 1019.23 1018.33 1017.38 1016.42 1015.49 1014.61 1013.79 1013.06 1012.40 1011.83 1011.34 1010.93 1010.60 1010.35 1010.18 1010.09 1010.08 1010.16 1010.33 1010.57 1010.90 1011.28 1011.71 1012.16 1012.63 1013.09 1013.53 1013.93 1014.28 1014.59 1014.84 1015.04 1015.20 1015.31 1015.38 1015.42
1021.83 1022.11 1022.20 1022.09 1021.77 1021.26 1020.60 1019.81 1018.94 1018.03 1017.11 1016.22 1015.39 1014.63 1013.95 1013.36 1012.85 1012.43 1012.08 1011.80 1011.59 1011.44 1011.36 1011.34 1011.39 1011.50 1011.69 1011.93 1012.23 1012.57 1012.93 1013.31 1013.69 1014.05 1014.38 1014.66 1014.90 1015.09 1015.23 1015.33 1015.39 1015.41 1015.40 1015.36
1022.39 1022.54 1022.49 1022.25 1021.80 1021.20 1020.47 1019.65 1018.79 1017.92 1017.07 1016.28 1015.56 1014.93 1014.39 1013.94 1013.57 1013.27 1013.04 1012.87 1012.75 1012.68 1012.66 1012.69 1012.76 1012.90 1013.07 1013.30 1013.56 1013.85 1014.15 1014.45 1014.73 1014.98 1015.20 1015.37 1015.49 1015.56 1015.59 1015.58 1015.54 1015.47 1015.37 1015.26
Thickness
5375 5379 5379 5375 5373 5367 5359 5363 5365 5378 5381 5384 5382 5379 5378 5377 5377 5378 5379 5380 5381 5382 5383 5386 5391 5396 5400 5405 5409 5414 5418 5421 5425 5428 5431 5435 5439 5444 5450 5456 5462 5468 5473 5477
5363 5370 5369 5370 5372 5367 5362 5359 5359 5364 5369 5374 5374 5371 5369 5367 5366 5367 5368 5369 5370 5371 5372 5374 5378 5383 5388 5394 5398 5404 5409 5414 5418 5421 5424 5428 5432 5437 5442 5447 5452 5457 5463 5466
5356 5363 5361 5360 5363 5360 5355 5355 5351 5352 5357 5361 5360 5360 5357 5356 5356 5356 5356 5358 5358 5359 5360 5363 5366 5371 5376 5382 5388 5394 5399 5404 5409 5414 5418 5421 5425 5429 5433 5438 5442 5447 5452 5455
5342 5343 5339 5364 5360 5358 5351 5346 5344 5345 5346 5347 5346 5347 5348 5347 5346 5345 5346 5348 5348 5350 5351 5354 5357 5362 5367 5373 5378 5384 5389 5394 5400 5405 5410 5414 5417 5421 5425 5429 5433 5437 5441 5444
5331 5331 5344 5357 5346 5340 5335 5335 5335 5334 5335 5336 5336 5338 5340 5341 5338 5336 5336 5337 5338 5340 5343 5345 5348 5352 5357 5364 5369 5374 5378 5383 5389 5395 5400 5405 5408 5412 5416 5419 5424 5427 5431 5435
5320 5320 5327 5342 5331 5329 5326 5323 5328 5325 5324 5322 5323 5320 5325 5327 5327 5327 5327 5328 5330 5332 5335 5337 5340 5344 5348 5354 5359 5364 5368 5374 5379 5386 5391 5396 5400 5404 5407 5411 5415 5419 5423 5426
5307 5310 5320 5323 5318 5319 5316 5319 5317 5315 5312 5309 5307 5306 5310 5314 5315 5316 5317 5319 5322 5324 5326 5328 5332 5335 5340 5345 5350 5355 5360 5366 5371 5377 5382 5387 5392 5395 5399 5403 5407 5411 5415 5417
5301 5302 5312 5309 5307 5303 5305 5307 5306 5305 5302 5299 5299 5301 5302 5303 5304 5306 5307 5310 5312 5315 5317 5320 5323 5326 5330 5335 5341 5347 5351 5358 5363 5369 5374 5380 5383 5387 5391 5394 5398 5401 5405 5408
5301 5306 5308 5302 5300 5299 5297 5295 5296 5295 5293 5291 5290 5292 5293 5294 5294 5296 5298 5301 5304 5306 5309 5312 5314 5317 5320 5326 5332 5338 5343 5349 5354 5360 5365 5370 5373 5378 5381 5385 5388 5392 5396 5398
5293 5301 5301 5298 5296 5294 5291 5287 5288 5286 5285 5284 5282 5283 5284 5286 5287 5288 5290 5292 5295 5297 5299 5302 5306 5309 5312 5317 5322 5328 5334 5339 5345 5351 5355 5360 5364 5368 5372 5375 5378 5381 5385 5388
5282 5287 5290 5294 5291 5289 5287 5284 5282 5281 5279 5277 5276 5276 5277 5278 5279 5280 5282 5284 5287 5288 5290 5294 5298 5301 5305 5309 5314 5319 5325 5330 5336 5341 5345 5350 5354 5358 5361 5365 5368 5371 5374 5377
5281 5284 5281 5283 5284 5282 5279 5277 5275 5274 5273 5272 5270 5269 5270 5271 5272 5273 5274 5276 5278 5280 5283 5286 5290 5294 5297 5301 5306 5311 5317 5321 5326 5331 5335 5340 5344 5348 5351 5355 5359 5362 5365 5368
5278 5277 5275 5276 5275 5274 5271 5270 5269 5267 5265 5264 5264 5264 5264 5264 5266 5267 5267 5268 5270 5272 5275 5278 5282 5286 5290 5294 5298 5302 5307 5312 5316 5321 5325 5329 5333 5337 5340 5344 5348 5351 5354 5358
5273 5270 5268 5268 5267 5266 5264 5263 5261 5260 5259 5258 5257 5257 5257 5257 5258 5259 5260 5262 5264 5266 5268 5271 5275 5279 5282 5287 5291 5295 5299 5303 5307 5310 5314 5318 5322 5325 5328 5332 5335 5339 5342 5345
5265 5262 5260 5260 5260 5259 5257 5255 5253 5252 5251 5251 5251 5250 5250 5250 5251 5252 5253 5255 5257 5259 5261 5264 5267 5270 5274 5278 5283 5287 5291 5295 5298 5301 5304 5307 5311 5314 5317 5320 5323 5325 5329 5332
5256 5254 5254 5252 5251 5250 5248 5246 5244 5244 5244 5244 5243 5243 5243 5243 5244 5245 5246 5247 5249 5251 5253 5256 5259 5262 5266 5270 5274 5278 5282 5286 5289 5292 5295 5297 5300 5303 5305 5308 5310 5312 5315 5318
5246 5246 5244 5242 5242 5241 5240 5238 5237 5236 5236 5236 5236 5236 5236 5236 5237 5238 5239 5240 5241 5243 5245 5248 5251 5254 5257 5261 5265 5269 5272 5276 5280 5281 5284 5286 5288 5291 5293 5295 5297 5300 5303 5306
5240 5239 5237 5235 5234 5233 5233 5232 5231 5230 5230 5230 5230 5229 5229 5228 5229 5231 5232 5233 5235 5237 5239 5241 5244 5247 5249 5253 5256 5259 5262 5265 5268 5270 5272 5274 5276 5279 5281 5283 5285 5287 5290 5294
5235 5233 5232 5231 5229 5227 5226 5226 5225 5224 5224 5223 5223 5223 5222 5222 5223 5224 5225 5226 5227 5229 5232 5234 5237 5239 5241 5244 5247 5249 5252 5254 5256 5258 5260 5263 5265 5267 5269 5272 5274 5275 5278 5280
5230 5228 5227 5226 5224 5222 5221 5220 5219 5218 5218 5217 5217 5216 5216 5216 5216 5217 5218 5219 5221 5222 5225 5227 5229 5232 5233 5235 5238 5240 5242 5244 5245 5247 5248 5250 5253 5255 5257 5260 5262 5264 5266 5268
5223 5222 5221 5219 5218 5217 5216 5215 5213 5213 5213 5212 5210 5210 5210 5210 5211 5211 5211 5213 5215 5217 5218 5221 5222 5224 5226 5228 5230 5231 5232 5234 5235 5236 5238 5240 5241 5243 5245 5248 5250 5252 5254 5256
5215 5214 5213 5212 5211 5210 5210 5209 5208 5207 5206 5206 5206 5205 5204 5205 5205 5206 5206 5207 5209 5210 5212 5213 5215 5217 5219 5220 5221 5222 5223 5225 5226 5227 5228 5229 5230 5232 5234 5236 5238 5240 5242 5244
5208 5207 5206 5205 5204 5203 5203 5203 5202 5201 5200 5200 5200 5200 5199 5200 5200 5200 5201 5202 5203 5204 5205 5206 5208 5211 5212 5212 5213 5214 5215 5216 5217 5217 5218 5220 5221 5222 5223 5225 5227 5229 5230 5232
5201 5200 5199 5198 5197 5196 5196 5197 5197 5196 5195 5195 5196 5195 5195 5195 5196 5196 5196 5197 5198 5199 5199 5200 5202 5204 5205 5204 5204 5205 5206 5207 5207 5208 5209 5210 5212 5213 5214 5215 5216 5218 5219 5220
5194 5193 5191 5190 5190 5191 5191 5191 5191 5190 5190 5190 5191 5191 5191 5191 5190 5191 5191 5191 5192 5193 5193 5194 5195 5196 5196 5196 5196 5197 5197 5198 5199 5200 5201 5202 5203 5204 5205 5206 5207 5209 5210 5211
5187 5186 5186 5185 5185 5185 5185 5185 5185 5185 5185 5185 5186 5186 5186 5186 5186 5186 5186 5186 5186 5187 5187 5187 5187 5187 5187 5188 5188 5189 5189 5190 5190 5191 5192 5193 5194 5196 5197 5198 5199 5200 5201 5203
5181 5180 5179 5179 5179 5178 5178 5178 5178 5179 5179 5179 5179 5180 5180 5180 5180 5181 5181 5181 5181 5181 5180 5180 5180 5180 5180 5181 5181 5181 5182 5182 5182 5183 5184 5185 5186 5187 5188 5190 5191 5192 5193 5194